Regional Weather Roundup
Issued by NWS Sterling, VA

Home | Current Version | Previous Version | Graphics & Text | Print | Product List | Glossary On
Versions: 1 2 3 4 5 6 7 8 9 10 11 12 13 14 15 16 17 18 19 20 21 22 23 24 25 26 27 28 29 30 31 32 33 34 35 36 37 38 39 40 41 42 43 44 45 46 47 48 49 50
000
ASUS41 KLWX 271110
RWRLWX

REGIONAL WEATHER ROUNDUP
NATIONAL WEATHER SERVICE BALTIMORE MD/WASHINGTON DC
600 AM EST MON FEB 27 2017

Note: "FAIR" indicates few or no clouds below 12,000 feet
with no significant weather and/or obstructions to visibility.
 TC=TEMPERATURE CELSIUS

 * =Non NWS site. Station does not report precipitation (e.g. rain,
    snow, etc.), thunder, or fog.

DCZ001-MDZ009-015-VAZ040>042-051-053>054-271200-
WASHINGTON METRO

CITY           SKY/WX    TMP DP  RH WIND       PRES   REMARKS
WASHINGTON NAT MOCLDY    37  32  82 VRB3      30.38R
DULLES         PTCLDY    25  20  81 CALM      30.36R
ANDREWS AFB    PTCLDY    35  32  90 S5        30.36R
FT BELVOIR     CLOUDY    29  25  84 CALM      30.38R
QUANTICO       PTCLDY    32  30  92 NW8       30.39R WCI  25
COLLEGE PARK*  PTCLDY    28  23  80 CALM      30.38R
LEESBURG*      CLOUDY    28  27  93 MISG      30.37R
MANASSAS*      CLOUDY    26  24  92 SW3       30.38R
GAITHERSBURG*  CLEAR     27  19  74 CALM      30.40R

$$

MDZ006>007-011-014-271200-
BALTIMORE METRO

CITY           SKY/WX    TMP DP  RH WIND       PRES   REMARKS
BWI AIRPORT    PTCLDY    27  23  85 CALM      30.37S
MD SCIENCE CTR   N/A     37  24  59 MISG      30.38R
MARTIN STATE   PTCLDY    28  28 100 CALM      30.40R
ANNAPOLIS      CLEAR     36  33  89 CALM      30.38R
FORT MEADE*    PTCLDY    23  23 100 CALM      30.40R

$$

MDZ012-015-019>023-271200-
MARYLAND EASTERN SHORE

CITY           SKY/WX    TMP DP  RH WIND       PRES   REMARKS
OCEAN CITY     CLEAR     29  25  85 CALM      30.42R
SALISBURY      CLEAR     27  25  92 CALM      30.41R
BAY BRIDGE AP* CLEAR     37  36  93 S6        30.38S
CAMBRIDGE*     CLEAR     30  28  93 SE5       30.39S
EASTON*        CLEAR     30  26  86 CALM      30.42S

$$

MDZ017>025-271200-
SOUTHERN MARYLAND

CITY           SKY/WX    TMP DP  RH WIND       PRES   REMARKS
PATUXENT RIVER PTCLDY    31  31 100 SE3       30.38S
ST INIGOES     PTCLDY    35  34  96 SE5       30.38S
LEONARDTOWN*   PTCLDY    32  32 100 CALM      30.40R

$$

MDZ003>005-271200-
NORTH CENTRAL MARYLAND

CITY           SKY/WX    TMP DP  RH WIND       PRES   REMARKS
FREDERICK*     CLOUDY    27  27 100 CALM      30.40R
HAGERSTOWN APT CLOUDY    34  19  54 CALM      30.33R
WESTMINSTER*   CLOUDY    36  27  69 SW6       30.34R

$$

MDZ501>502-271200-
WESTERN MARYLAND

CITY           SKY/WX    TMP DP  RH WIND       PRES   REMARKS
OAKLAND*       CLOUDY    32  10  40 SW8       30.24R WCI  25
CUMBERLAND*    PTCLDY    28  23  80 CALM      30.39R

$$

VAZ025>031-271200-
SHENANDOAH VALLEY

CITY           SKY/WX    TMP DP  RH WIND       PRES   REMARKS
WINCHESTER*    CLOUDY    32  18  55 W6        30.33R
FRONT ROYAL*   CLOUDY    32  19  59 S3        30.33R
LURAY*         CLOUDY    32  27  80 CALM      30.34R
NEW MARKET*    CLOUDY    29  22  73 CALM      30.34R
STAUNTON*      PTCLDY    23  19  83 CALM      30.37R
WAYNESBORO*    CLOUDY    27  16  63 CALM      30.34R

$$

WVZ021-048>050-054>055-271200-
EASTERN WEST VIRGINIA PANHANDLE

CITY           SKY/WX    TMP DP  RH WIND       PRES   REMARKS
MARTINSBURG    MOCLDY    28  17  63 CALM      30.34R
PETERSBURG*    CLOUDY    28  23  82 CALM      30.36R

$$

VAZ036>039-050-271200-
CENTRAL FOOTHILLS

CITY           SKY/WX    TMP DP  RH WIND       PRES   REMARKS
CHARLOTTESVILL CLEAR     29  20  69 W3        30.37R
CULPEPER*      CLOUDY    28  24  85 CALM      30.39R
ORANGE*        PTCLDY    28  23  80 CALM      30.39R
GORDONSVILLE*  PTCLDY    27  24  88 CALM      30.36S
WARRENTON*     CLOUDY    28  24  84 CALM      30.38R

$$

VAZ055>057-271200-
NORTH AND CENTRAL PIEDMONT

CITY           SKY/WX    TMP DP  RH WIND       PRES   REMARKS
FREDERICKSBRG* CLEAR     29  26  90 CALM      30.38R
STAFFORD*      PTCLDY    28  28  99 CALM      30.42R

$$

NCZ024-NYZ072-PAZ021-071-VAZ022-071-271200-
OTHER REGIONAL OBSERVATIONS

CITY           SKY/WX    TMP DP  RH WIND       PRES   REMARKS
NEW YORK CITY  PTCLDY    35  19  52 VRB6      30.39R
PHILADELPHIA   MOCLDY    34  25  69 SW3       30.39S
PITTSBURGH     CLOUDY    34  16  47 S5        30.25R
ROANOKE        CLOUDY    32  25  75 W3        30.38R
RICHMOND       PTCLDY    31  28  89 SE6       30.38R
RALEIGH        MOCLDY    42  22  44 SE10      30.34F

$$

ANZ530>537-271200-
MARINE OBSERVATIONS

STATION/POSITION TIME  TEMP    WIND        PRES
                       AIR SEA DIR/SP/G
                 (UTC) (F)     (DEG/KT/KT) (MB)
THOMAS PT LIGHT  1100   44 44  170/ 13/ 15   N/A
BALT KEY BRIDGE  1048   37      CALM  /  1 1028.8R
COVE POINT       1048   43     190/ 12/ 13 1029.3S
LEWISETTA        1048   40 49  210/  2/  3 1028.8R
SOLOMONS ISLAND  1048   41 45  140/  5/  5   N/A
PINEY POINT      1048          180/  8/  9   N/A

$$




USA.gov is the U.S. government's official web portal to all federal, state and local government web resources and services.